Lid_Strength_Index
6 8 9 8 6 5 4 4 4 5 4 4 5 3 2 0 -0 -0 -0 -1 -1 -1 -1 -1 -1 -1 -1 -1 -1 -1 -1 -1
8 8 7 6 5 4 4 4 3 4 5 4 2 2 1 -0 -0 -0 -0 -1 -1 -1 -1 -1 -1 -1 -1 -1 -1 -1 -1 -1
9 8 6 5 5 4 5 4 4 4 5 5 2 1 0 0 -0 0 -0 -1 -1 -1 -1 -1 -1 -1 -1 -1 -1 -1 -1 -1
9 8 7 5 4 4 4 4 4 4 5 5 1 1 1 0 0 -0 -0 -1 -1 -1 -1 -1 -1 -1 -1 -1 -1 -1 -1 -1
7 7 7 6 3 4 4 4 4 3 6 4 3 1 0 0 -0 -0 -0 -1 -1 -1 -1 -1 -1 -1 -1 -1 -1 -1 -1 -1
8 7 7 4 4 3 4 4 2 3 6 6 3 1 0 0 0 -0 -0 -0 -1 -1 -1 -1 -1 -1 -1 -1 -1 -1 -1 -1
8 7 6 4 5 3 3 3 3 3 4 3 2 1 1 1 1 1 0 -0 -0 -1 -1 -1 -1 -1 -1 -1 -1 -1 -1 -1
5 5 5 4 4 4 4 5 4 4 3 2 2 2 2 2 2 2 1 0 -0 -0 -1 -1 -1 -1 -2 -1 -2 -2 -2 -2
5 4 4 4 4 3 4 5 4 5 4 3 3 2 2 2 2 2 1 0 0 -0 -0 -1 -0 -1 -1 -1 -1 -2 -2 -2
5 4 5 5 4 4 4 4 3 3 3 3 3 3 3 2 2 1 1 1 -0 -0 -1 -1 -1 -0 -1 -1 -1 -1 -1 -2
5 5 5 4 5 4 4 3 2 3 3 3 3 3 2 2 1 1 1 1 0 -0 -0 -1 -1 -1 -1 -1 -1 -1 -1 -1
5 5 5 6 6 5 4 3 3 3 4 3 3 3 2 2 2 1 1 1 0 -0 -0 -1 -0 -1 -1 -1 -1 -1 -1 -1
6 6 6 5 7 7 4 3 3 4 3 3 3 2 3 2 2 1 1 0 0 -0 -0 -0 -1 -1 -1 -1 -1 -1 -1 -2
7 6 6 6 9 6 4 3 4 4 4 3 3 3 2 2 1 1 1 1 -0 -0 -0 -0 -1 -0 -0 -1 -1 -1 -1 -1
9 6 6 7 8 5 5 5 4 4 4 4 3 3 2 2 1 1 1 1 1 -0 -0 -0 -0 -0 -1 -1 -1 -1 -1 -1
9 7 7 8 7 5 5 5 4 4 4 4 4 3 2 2 1 1 1 1 1 0 -0 -1 -0 -0 -0 -0 -0 -1 -1 -1
8 6 8 8 7 6 5 5 4 4 4 4 3 2 2 1 1 1 1 1 1 1 0 0 1 1 1 1 0 0 -0 -1
8 6 8 8 8 6 5 5 4 4 4 4 3 3 2 2 1 1 1 1 1 1 0 0 0 0 0 0 0 -0 -0 -1
8 8 8 8 8 7 6 5 5 4 3 3 3 3 2 2 1 1 1 1 0 0 0 0 -0 0 0 -0 0 1 0 0
8 10 12 8 12 8 7 6 5 5 4 3 3 2 2 2 2 1 1 0 0 0 0 -0 -0 0 0 2 2 1 1 1